Location: Newark
(46.1292°N, 1.0086°W)
Time: 12:56:30
(UTC+00:00)

Vanguard 3 - Pass Details

Date: 16 November 2019
Orbit: 508 x 3263 km, 33.3° (Epoch: 12 December)

Event Time Altitude Azimuth Distance (km) Brightness Sun altitude
Rises 13:48:54 0° 221° (SW) 7,034 13.4 19.7°
Reaches altitude 10° 13:54:02 10° 214° (SW) 6,147 14.1 19.2°
Maximum altitude 14:11:08 38° 156° (SSE) 4,086 11.3 17.6°
Drops below altitude 10° 14:25:08 10° 96° (E) 5,098 10.9 16.1°
Sets 14:28:52 0° 89° (E) 5,772 11.1 15.7°
